CW5049 Weather Reports


Display with metric or nautical units.
time (UTC)temp
F
wind
direction
speed
MPH
gust
MPH
rain 1hr
in
rain 24hr
in
rain mn
in
humidity
%
barometer
mb
20260505074543 53 266 1.0 2.0 0.00 0.00 0.00 86 1013.0
20260505073054 53 334 1.0 3.0 0.00 0.00 0.00 84 1012.9
20260505071558 54 303 0.0 2.0 0.00 0.00 0.00 84 1012.7
20260505070056 54 274 1.0 6.0 0.00 0.00 0.00 84 1012.5
20260505064550 55 207 3.0 7.0 0.00 0.00 0.00 83 1012.2
20260505063045 55 253 3.0 6.0 0.00 0.00 0.00 82 1012.1
20260505061546 56 240 4.0 8.0 0.00 0.00 0.00 80 1012.0
20260505060049 57 226 3.0 7.0 0.00 0.00 0.00 78 1011.9
20260505054543 59 197 2.0 3.0 0.00 0.00 0.00 75 1011.9
20260505053042 59 186 1.0 4.0 0.00 0.00 0.00 74 1011.8
20260505051558 60 201 1.0 4.0 0.00 0.00 0.00 72 1011.6
20260505041540 63 208 1.0 6.0 0.00 0.00 0.00 68 1011.1
20260505040048 64 247 2.0 7.0 0.00 0.00 0.00 66 1010.8
20260505034544 65 211 5.0 13.0 0.00 0.00 0.00 64 1010.5
20260505033041 67 213 3.0 9.0 0.00 0.00 0.00 62 1010.5
20260505031549 69 155 3.0 7.0 0.00 0.00 0.00 61 1010.2
20260505030047 71 210 2.0 8.0 0.00 0.00 0.00 58 1010.0
20260505024549 72 214 5.0 11.0 0.00 0.00 0.00 57 1009.8
20260505023051 73 181 6.0 12.0 0.00 0.00 0.00 55 1009.7
20260505021544 73 210 5.0 11.0 0.00 0.00 0.00 53 1009.8
20260505020042 74 245 6.0 15.0 0.00 0.00 0.00 52 1009.7
20260505014542 75 256 8.0 14.0 0.00 0.00 0.00 49 1009.7
20260505013101 75 220 8.0 12.0 0.00 0.00 0.00 47 1009.6
20260505011550 76 240 5.0 12.0 0.00 0.00 0.00 43 1009.7
20260505010055 76 244 8.0 13.0 0.00 0.00 0.00 41 1009.8
20260505004542 77 219 6.0 11.0 0.00 0.00 0.00 39 1009.8
20260505003047 77 230 6.0 11.0 0.00 0.00 0.00 42 1009.7
20260505001548 77 230 6.0 12.0 0.00 0.00 0.00 43 1009.7
20260505000057 77 207 5.0 13.0 0.00 0.00 0.00 42 1009.7
20260504234545 77 186 5.0 11.0 0.00 0.00 0.00 41 1009.8
20260504233044 77 217 7.0 11.0 0.00 0.00 0.00 42 1009.8
20260504231542 78 245 6.0 13.0 0.00 0.00 0.00 41 1009.7
20260504230051 78 180 7.0 12.0 0.00 0.00 0.00 42 1009.9
20260504224546 77 102 4.0 12.0 0.00 0.00 0.00 40 1010.1
20260504223047 78 244 4.0 12.0 0.00 0.00 0.00 38 1010.2
20260504221541 77 234 3.0 13.0 0.00 0.00 0.00 37 1010.2
20260504220048 77 201 6.0 11.0 0.00 0.00 0.00 39 1010.4
20260504214557 76 220 5.0 11.0 0.00 0.00 0.00 39 1010.7
20260504213043 75 226 6.0 14.0 0.00 0.00 0.00 42 1010.7
20260504211541 76 205 5.0 11.0 0.00 0.00 0.00 43 1010.7
20260504210042 74 242 6.0 12.0 0.00 0.00 0.00 43 1010.6
20260504204551 74 215 5.0 14.0 0.00 0.00 0.00 44 1010.7
20260504203047 75 205 4.0 9.0 0.00 0.00 0.00 45 1010.6
20260504201557 76 240 3.0 10.0 0.00 0.00 0.00 46 1010.8
20260504200049 75 222 5.0 11.0 0.00 0.00 0.00 45 1010.9
20260504194548 74 281 4.0 10.0 0.00 0.00 0.00 44 1011.0
20260504193046 73 279 5.0 10.0 0.00 0.00 0.00 46 1011.0
20260504191556 72 309 6.0 10.0 0.00 0.00 0.00 45 1011.2
20260504190045 73 197 3.0 8.0 0.00 0.00 0.00 48 1011.2
20260504184554 71 215 5.0 13.0 0.00 0.00 0.00 49 1011.4
20260504183042 71 211 3.0 9.0 0.00 0.00 0.00 53 1011.4
20260504181548 70 242 2.0 8.0 0.00 0.00 0.00 52 1011.5
20260504180052 69 191 2.0 9.0 0.00 0.00 0.00 53 1011.4
20260504174544 68 68 3.0 9.0 0.00 0.00 0.00 54 1011.3
20260504173050 68 149 2.0 8.0 0.00 0.00 0.00 55 1011.4
20260504171551 67 172 3.0 9.0 0.00 0.00 0.00 56 1011.4
20260504120105 56 58 1.0 3.0 0.00 0.00 0.00 64 1009.7
20260504081555 57 341 0.0 2.0 0.00 0.00 0.00 72 1009.9